When you browse on this site, cookies collect data to enhance your experience and personalize the content and advertising you see.
Visit our Privacy Policy to learn more. By continuing to use the site, you agree to this use of cookies and data.
  • en France
  • Liste des pays
  • À 7 jours
  • Température de l'eau
  • Carte météo
  • Widgets météo
  • user-avatar
    Se connecter

    Météo par heure à Zapotlán de Juárez

    Ce jour, 15 Septembre, Dimanche

    Heure Température Précipitation Vent Pression Humidité
    00:00 +12°C° 0 mm 1 m/s 576 mmHg 90%
    01:00 +12°C° 0 mm 1 m/s 576 mmHg 89%
    02:00 +11°C° 0 mm 0 m/s 576 mmHg 88%
    03:00 +11°C° 0 mm 0 m/s 576 mmHg 88%
    04:00 +11°C° 0 mm 0 m/s 576 mmHg 89%
    05:00 +10°C° 0 mm 0 m/s 576 mmHg 89%
    06:00 +12°C° 0 mm 0 m/s 576 mmHg 83%
    07:00 +14°C° 0 mm 1 m/s 577 mmHg 76%
    08:00 +16°C° 0 mm 1 m/s 578 mmHg 70%
    09:00 +18°C° 0 mm 1 m/s 579 mmHg 63%
    10:00 +20°C° 0 mm 1 m/s 579 mmHg 56%
    11:00 +21°C° 0 mm 2 m/s 580 mmHg 49%
    12:00 +21°C° 0 mm 3 m/s 579 mmHg 52%
    13:00 +21°C° 0 mm 4 m/s 579 mmHg 54%
    14:00 +21°C° 0 mm 5 m/s 578 mmHg 57%
    15:00 +20°C° 0.2 mm 4 m/s 577 mmHg 62%
    16:00 +19°C° 0.2 mm 4 m/s 577 mmHg 67%
    17:00 +18°C° 0.2 mm 4 m/s 577 mmHg 72%
    18:00 +17°C° 0 mm 3 m/s 577 mmHg 78%
    19:00 +14°C° 0 mm 3 m/s 577 mmHg 84%
    20:00 +14°C° 0 mm 2 m/s 577 mmHg 90%
    21:00 +13°C° 0 mm 2 m/s 576 mmHg 90%
    22:00 +13°C° 0 mm 1 m/s 576 mmHg 91%
    23:00 +12°C° 0 mm 1 m/s 576 mmHg 92%

    Demain, 16 Septembre, Lundi

    Heure Température Précipitation Vent Pression Humidité
    00:00 +12°C° 0 mm 1 m/s 576 mmHg 92%
    01:00 +11°C° 0 mm 0 m/s 575 mmHg 91%
    02:00 +10°C° 0 mm 0 m/s 575 mmHg 91%
    03:00 +10°C° 0 mm 0 m/s 575 mmHg 91%
    04:00 +10°C° 0 mm 0 m/s 575 mmHg 90%
    05:00 +10°C° 0 mm 0 m/s 575 mmHg 90%
    06:00 +12°C° 0 mm 0 m/s 576 mmHg 82%
    07:00 +13°C° 0 mm 0 m/s 577 mmHg 73%
    08:00 +16°C° 0 mm 1 m/s 578 mmHg 65%
    09:00 +19°C° 0 mm 1 m/s 579 mmHg 60%
    10:00 +20°C° 0 mm 2 m/s 579 mmHg 55%
    11:00 +23°C° 0 mm 2 m/s 580 mmHg 49%
    12:00 +22°C° 0 mm 3 m/s 579 mmHg 51%
    13:00 +22°C° 0 mm 4 m/s 578 mmHg 52%
    14:00 +22°C° 0 mm 5 m/s 578 mmHg 54%
    15:00 +21°C° 0.3 mm 5 m/s 577 mmHg 60%
    16:00 +19°C° 0.3 mm 4 m/s 577 mmHg 67%
    17:00 +18°C° 0.3 mm 4 m/s 576 mmHg 74%
    18:00 +17°C° 0.5 mm 3 m/s 576 mmHg 79%
    19:00 +16°C° 0.5 mm 3 m/s 576 mmHg 84%
    20:00 +15°C° 0.5 mm 2 m/s 576 mmHg 90%
    21:00 +14°C° 0 mm 2 m/s 576 mmHg 91%
    22:00 +14°C° 0 mm 1 m/s 576 mmHg 92%
    23:00 +13°C° 0 mm 1 m/s 576 mmHg 93%

    Après-demain, 17 Septembre, Mardi

    Heure Température Précipitation Vent Pression Humidité
    00:00 +13°C° 0 mm 1 m/s 576 mmHg 93%
    01:00 +13°C° 0 mm 1 m/s 575 mmHg 92%
    02:00 +12°C° 0 mm 0 m/s 575 mmHg 92%
    03:00 +12°C° 0 mm 0 m/s 575 mmHg 91%
    04:00 +12°C° 0 mm 0 m/s 575 mmHg 91%
    05:00 +11°C° 0 mm 0 m/s 575 mmHg 90%
    06:00 +13°C° 0 mm 0 m/s 576 mmHg 84%
    07:00 +14°C° 0 mm 0 m/s 577 mmHg 78%
    08:00 +16°C° 0 mm 0 m/s 578 mmHg 72%
    09:00 +17°C° 0.1 mm 0 m/s 579 mmHg 65%
    10:00 +21°C° 0.1 mm 1 m/s 579 mmHg 59%
    11:00 +23°C° 0.1 mm 1 m/s 580 mmHg 52%
    12:00 +23°C° 0.6 mm 2 m/s 579 mmHg 53%
    13:00 +22°C° 0.6 mm 3 m/s 579 mmHg 54%
    14:00 +22°C° 0.6 mm 3 m/s 578 mmHg 55%
    15:00 +21°C° 1.7 mm 3 m/s 578 mmHg 62%
    16:00 +20°C° 1.7 mm 3 m/s 577 mmHg 69%
    17:00 +19°C° 1.7 mm 3 m/s 577 mmHg 76%
    18:00 +18°C° 0.9 mm 3 m/s 577 mmHg 79%
    19:00 +17°C° 0.9 mm 3 m/s 577 mmHg 82%
    20:00 +16°C° 0.9 mm 2 m/s 577 mmHg 85%
    21:00 +16°C° 0.4 mm 2 m/s 577 mmHg 86%
    22:00 +16°C° 0.4 mm 1 m/s 577 mmHg 87%
    23:00 +15°C° 0.4 mm 1 m/s 577 mmHg 88%

    18 Septembre, Mercredi

    Heure Température Précipitation Vent Pression Humidité
    00:00 +15°C° 0 mm 1 m/s 577 mmHg 89%
    01:00 +14°C° 0 mm 1 m/s 576 mmHg 90%
    02:00 +13°C° 0 mm 0 m/s 576 mmHg 91%
    03:00 +12°C° 0 mm 0 m/s 575 mmHg 91%
    04:00 +12°C° 0 mm 0 m/s 575 mmHg 91%
    05:00 +12°C° 0 mm 0 m/s 575 mmHg 91%
    06:00 +13°C° 0 mm 0 m/s 576 mmHg 86%
    07:00 +15°C° 0 mm 0 m/s 577 mmHg 80%
    08:00 +17°C° 0 mm 0 m/s 578 mmHg 74%
    09:00 +20°C° 0.2 mm 1 m/s 579 mmHg 69%
    10:00 +21°C° 0.2 mm 1 m/s 579 mmHg 63%
    11:00 +23°C° 0.2 mm 2 m/s 579 mmHg 57%
    12:00 +22°C° 0.5 mm 3 m/s 579 mmHg 58%
    13:00 +22°C° 0.5 mm 4 m/s 578 mmHg 59%
    14:00 +22°C° 0.5 mm 5 m/s 578 mmHg 60%
    15:00 +21°C° 1.1 mm 4 m/s 577 mmHg 65%
    16:00 +20°C° 1.1 mm 4 m/s 577 mmHg 70%
    17:00 +18°C° 1.1 mm 4 m/s 577 mmHg 75%
    18:00 +17°C° 0.8 mm 3 m/s 577 mmHg 80%
    19:00 +16°C° 0.8 mm 3 m/s 577 mmHg 85%
    20:00 +14°C° 0.8 mm 3 m/s 577 mmHg 90%
    21:00 +15°C° 0 mm 2 m/s 577 mmHg 90%
    22:00 +15°C° 0 mm 2 m/s 576 mmHg 91%
    23:00 +14°C° 0 mm 2 m/s 576 mmHg 92%

    19 Septembre, Jeudi

    Heure Température Précipitation Vent Pression Humidité
    00:00 +14°C° 0 mm 2 m/s 576 mmHg 93%
    01:00 +14°C° 0 mm 1 m/s 576 mmHg 93%
    02:00 +13°C° 0 mm 1 m/s 575 mmHg 94%
    03:00 +13°C° 0 mm 1 m/s 575 mmHg 93%
    04:00 +13°C° 0 mm 1 m/s 575 mmHg 92%
    05:00 +13°C° 0 mm 1 m/s 575 mmHg 91%
    06:00 +15°C° 0 mm 1 m/s 576 mmHg 85%
    07:00 +16°C° 0 mm 1 m/s 577 mmHg 78%
    08:00 +19°C° 0 mm 1 m/s 578 mmHg 71%
    09:00 +19°C° 0.3 mm 2 m/s 578 mmHg 66%
    10:00 +20°C° 0.3 mm 2 m/s 579 mmHg 61%
    11:00 +22°C° 0.3 mm 3 m/s 579 mmHg 55%
    12:00 +22°C° 1.9 mm 4 m/s 578 mmHg 59%
    13:00 +21°C° 1.9 mm 4 m/s 578 mmHg 62%
    14:00 +21°C° 1.9 mm 5 m/s 577 mmHg 66%
    15:00 +20°C° 1.6 mm 5 m/s 577 mmHg 69%
    16:00 +19°C° 1.6 mm 5 m/s 576 mmHg 72%
    17:00 +17°C° 1.6 mm 5 m/s 576 mmHg 76%
    18:00 +17°C° 0.1 mm 4 m/s 576 mmHg 80%
    19:00 +14°C° 0.1 mm 3 m/s 576 mmHg 84%
    20:00 +13°C° 0.1 mm 3 m/s 576 mmHg 88%
    21:00 +14°C° 0 mm 2 m/s 576 mmHg 89%
    22:00 +14°C° 0 mm 2 m/s 576 mmHg 90%
    23:00 +13°C° 0 mm 2 m/s 576 mmHg 92%

    20 Septembre, Vendredi

    Heure Température Précipitation Vent Pression Humidité
    00:00 +13°C° 0 mm 2 m/s 575 mmHg 91%
    01:00 +12°C° 0 mm 1 m/s 575 mmHg 91%
    02:00 +12°C° 0 mm 1 m/s 575 mmHg 91%
    03:00 +12°C° 0 mm 1 m/s 574 mmHg 91%
    04:00 +11°C° 0 mm 1 m/s 574 mmHg 90%
    05:00 +11°C° 0 mm 1 m/s 574 mmHg 90%
    06:00 +12°C° 0 mm 1 m/s 575 mmHg 80%
    07:00 +14°C° 0 mm 1 m/s 576 mmHg 71%
    08:00 +16°C° 0 mm 1 m/s 577 mmHg 62%
    09:00 +18°C° 0 mm 2 m/s 578 mmHg 54%
    10:00 +20°C° 0 mm 2 m/s 579 mmHg 46%
    11:00 +23°C° 0 mm 2 m/s 579 mmHg 38%
    12:00 +22°C° 0 mm 3 m/s 579 mmHg 38%
    13:00 +23°C° 0 mm 4 m/s 579 mmHg 39%
    14:00 +23°C° 0 mm 5 m/s 578 mmHg 40%
    15:00 +21°C° 0 mm 5 m/s 578 mmHg 50%
    16:00 +20°C° 0 mm 5 m/s 577 mmHg 61%
    17:00 +18°C° 0 mm 4 m/s 576 mmHg 71%
    18:00 +17°C° 0 mm 4 m/s 576 mmHg 77%
    19:00 +14°C° 0 mm 3 m/s 576 mmHg 83%
    20:00 +14°C° 0 mm 2 m/s 576 mmHg 89%
    21:00 +13°C° 0 mm 2 m/s 576 mmHg 90%
    22:00 +13°C° 0 mm 2 m/s 576 mmHg 91%
    23:00 +12°C° 0 mm 1 m/s 576 mmHg 91%
    Voir plus